This is the latest recevied weather packets stored in our database for station/object N2ZVN. If no packets are shown the sender has not sent any weather packets the latest 10 day(s).
| Time | Temp. | Humidity | Pressure | Rain* | Wind** | Luminosity | Snow |
|---|---|---|---|---|---|---|---|
| 1777741565 | 7.78° C | 64% | 1015.3 hPa | 0 mm | - | 246 W/m² | - |
| 1777741262 | 7.78° C | 62% | 1015.1 hPa | 0 mm | - | 1008 W/m² | - |
| 1777740959 | 7.78° C | 63% | 1015.4 hPa | 0 mm | - | 359 W/m² | - |
| 1777740656 | 8.89° C | 62% | 1015.3 hPa | 0 mm | - | 177 W/m² | - |
| 1777740352 | 7.78° C | 63% | 1015.4 hPa | 0 mm | - | 912 W/m² | - |
| 1777740049 | 7.78° C | 65% | 1015.4 hPa | 0 mm | - | 871 W/m² | - |
| 1777739745 | 7.78° C | 63% | 1015.2 hPa | 0 mm | - | 932 W/m² | - |
| 1777739442 | 7.78° C | 62% | 1015.6 hPa | 0 mm | - | 323 W/m² | - |
| 1777739139 | 7.78° C | 62% | 1015.3 hPa | 0 mm | - | 856 W/m² | - |
| 1777738836 | 7.78° C | 64% | 1015.4 hPa | 0 mm | - | 855 W/m² | - |
| 1777738532 | 7.78° C | 65% | 1015.6 hPa | 0 mm | - | 854 W/m² | - |
| 1777738230 | 7.22° C | 64% | 1015.6 hPa | 0 mm | - | 854 W/m² | - |
| 1777737928 | 7.22° C | 65% | 1015.8 hPa | 0 mm | - | 852 W/m² | - |
| 1777737626 | 7.78° C | 62% | 1015.4 hPa | 0 mm | - | 841 W/m² | - |
| 1777737325 | 7.22° C | 63% | 1015.5 hPa | 0 mm | - | 843 W/m² | - |
| 1777737021 | 7.22° C | 62% | 1015.5 hPa | 0 mm | - | 857 W/m² | - |
| 1777736717 | 7.22° C | 62% | 1015.5 hPa | 0 mm | - | 188 W/m² | - |
| 1777736072 | 7.22° C | 60% | 1015.5 hPa | 0 mm | - | 277 W/m² | - |
| 1777735769 | 6.67° C | 60% | 1015.8 hPa | 0 mm | - | 829 W/m² | - |
| 1777735466 | 7.22° C | 61% | 1015.6 hPa | 0 mm | - | 911 W/m² | - |
| 1777735164 | 6.67° C | 61% | 1015.5 hPa | 0 mm | - | 268 W/m² | - |
| 1777734860 | 6.67° C | 56% | 1015.6 hPa | 0 mm | - | 846 W/m² | - |
| 1777734558 | 7.78° C | 56% | 1015.6 hPa | 0 mm | - | 169 W/m² | - |
| 1777734254 | 7.22° C | 52% | 1015.6 hPa | 0 mm | - | 884 W/m² | - |
| 1777733951 | 7.22° C | 51% | 1015.6 hPa | 0 mm | - | 260 W/m² | - |
* Rain latest hour (hover to see other rain measurements)
** Current wind speed in m/s (hover to see current wind gust speed)